| time (UTC) | temp F | wind direction | speed MPH | gust MPH | rain 1hr in | rain 24hr in | rain mn in | humidity % | barometer mb |
| 20260507164202 | 72 | 167 | 5.0 | 9.0 | 0.00 | 0.00 | 0.00 | 86 | |
| 20260507163914 | 72 | 254 | 7.0 | 9.0 | 0.00 | 0.00 | 0.00 | 86 | |
| 20260507163606 | 72 | 195 | 2.0 | 3.0 | 0.00 | 0.00 | 0.00 | 86 | |
| 20260507163308 | 72 | 195 | 4.0 | 6.0 | 0.00 | 0.00 | 0.00 | 87 | |
| 20260507163009 | 71 | 203 | 4.0 | 9.0 | 0.00 | 0.00 | 0.00 | 87 | |
| 20260507162707 | 72 | 196 | 7.0 | 9.0 | 0.00 | 0.00 | 0.00 | 87 | |
| 20260507162411 | 72 | 177 | 4.0 | 7.0 | 0.00 | 0.00 | 0.00 | 87 | |
| 20260507161810 | 72 | 172 | 5.0 | 8.0 | 0.00 | 0.00 | 0.00 | 87 | |
| 20260507161511 | 71 | 159 | 4.0 | 9.0 | 0.00 | 0.00 | 0.00 | 88 | |
| 20260507161212 | 72 | 210 | 7.0 | 9.0 | 0.00 | 0.00 | 0.00 | 87 | |
| 20260507160910 | 72 | 206 | 6.0 | 10.0 | 0.00 | 0.00 | 0.00 | 87 | |
| 20260507160008 | 72 | 209 | 4.0 | 7.0 | 0.00 | 0.00 | 0.00 | 85 | |
| 20260507155405 | 71 | 180 | 9.0 | 11.0 | 0.00 | 0.00 | 0.00 | 86 | |
| 20260507155108 | 72 | 184 | 7.0 | 10.0 | 0.00 | 0.00 | 0.00 | 86 | |
| 20260507154812 | 73 | 195 | 10.0 | 14.0 | 0.00 | 0.00 | 0.00 | 85 | |
| 20260507154505 | 72 | 222 | 7.0 | 9.0 | 0.00 | 0.00 | 0.00 | 86 | |
| 20260507154207 | 72 | 202 | 8.0 | 10.0 | 0.00 | 0.00 | 0.00 | 86 | |
| 20260507153911 | 72 | 145 | 2.0 | 9.0 | 0.00 | 0.00 | 0.00 | 86 | |
| 20260507153604 | 72 | 186 | 5.0 | 9.0 | 0.00 | 0.00 | 0.00 | 86 | |
| 20260507153308 | 72 | 163 | 7.0 | 11.0 | 0.00 | 0.00 | 0.00 | 85 | |
| 20260507153003 | 72 | 195 | 3.0 | 9.0 | 0.00 | 0.00 | 0.00 | 86 | |
| 20260507152708 | 73 | 165 | 6.0 | 10.0 | 0.00 | 0.00 | 0.00 | 86 | |
| 20260507152411 | 71 | 191 | 6.0 | 8.0 | 0.00 | 0.00 | 0.00 | 86 | |
| 20260507152105 | 72 | 198 | 5.0 | 9.0 | 0.00 | 0.00 | 0.00 | 86 | |
| 20260507151812 | 72 | 191 | 7.0 | 8.0 | 0.00 | 0.00 | 0.00 | 86 | |
| 20260507151511 | 72 | 165 | 6.0 | 11.0 | 0.00 | 0.00 | 0.00 | 85 | |
| 20260507151204 | 72 | 190 | 4.0 | 10.0 | 0.00 | 0.00 | 0.00 | 84 | |
| 20260507150909 | 72 | 177 | 8.0 | 9.0 | 0.00 | 0.00 | 0.00 | 85 | |
| 20260507150609 | 72 | 203 | 6.0 | 10.0 | 0.00 | 0.00 | 0.00 | 85 | |
| 20260507150309 | 72 | 201 | 7.0 | 8.0 | 0.00 | 0.00 | 0.00 | 84 | |
| 20260507150002 | 72 | 184 | 4.0 | 10.0 | 0.00 | 0.00 | 0.00 | 83 | |
| 20260507145402 | 71 | 212 | 3.0 | 6.0 | 0.00 | 0.00 | 0.00 | 84 | |
| 20260507145107 | 72 | 176 | 4.0 | 8.0 | 0.00 | 0.00 | 0.00 | 84 | |
| 20260507144811 | 73 | 226 | 7.0 | 9.0 | 0.00 | 0.00 | 0.00 | 83 | |
| 20260507144505 | 74 | 167 | 3.0 | 8.0 | 0.00 | 0.00 | 0.00 | 83 | |
| 20260507144207 | 72 | 222 | 5.0 | 8.0 | 0.00 | 0.00 | 0.00 | 82 | |
| 20260507143912 | 73 | 199 | 6.0 | 10.0 | 0.00 | 0.00 | 0.00 | 82 | |
| 20260507143605 | 73 | 187 | 4.0 | 9.0 | 0.00 | 0.00 | 0.00 | 81 | |
| 20260507143309 | 73 | 237 | 4.0 | 4.0 | 0.00 | 0.00 | 0.00 | 81 | |
| 20260507143010 | 74 | 197 | 4.0 | 7.0 | 0.00 | 0.00 | 0.00 | 79 | |
| 20260507142707 | 74 | 171 | 2.0 | 7.0 | 0.00 | 0.00 | 0.00 | 80 | |
| 20260507142411 | 74 | 147 | 4.0 | 7.0 | 0.00 | 0.00 | 0.00 | 80 | |
| 20260507142103 | 73 | 59 | 3.0 | 6.0 | 0.00 | 0.00 | 0.00 | 81 | |
| 20260507141812 | 73 | 190 | 6.0 | 8.0 | 0.00 | 0.00 | 0.00 | 80 | |
| 20260507141506 | 73 | 227 | 3.0 | 7.0 | 0.00 | 0.00 | 0.00 | 80 | |
| 20260507141209 | 74 | 138 | 6.0 | 9.0 | 0.00 | 0.00 | 0.00 | 79 | |
| 20260507140910 | 73 | 159 | 5.0 | 6.0 | 0.00 | 0.00 | 0.00 | 81 | |
| 20260507140605 | 73 | 217 | 4.0 | 7.0 | 0.00 | 0.00 | 0.00 | 82 | |
| 20260507140310 | 73 | 168 | 2.0 | 6.0 | 0.00 | 0.00 | 0.00 | 83 | |
| 20260507140013 | 72 | 88 | 2.0 | 10.0 | 0.00 | 0.00 | 0.00 | 84 | |
| 20260507140001 | 71 | 240 | 5.0 | 6.0 | 0.00 | 0.00 | 0.00 | 84 | |
| 20260507135403 | 72 | 168 | 2.0 | 3.0 | 0.00 | 0.00 | 0.00 | 85 | |
| 20260507135107 | 72 | 149 | 3.0 | 7.0 | 0.00 | 0.00 | 0.00 | 84 | |
| 20260507134812 | 72 | 135 | 4.0 | 7.0 | 0.00 | 0.00 | 0.00 | 83 | |
| 20260507134505 | 72 | 30 | 4.0 | 6.0 | 0.00 | 0.00 | 0.00 | 85 | |
| 20260507134208 | 70 | 169 | 1.0 | 7.0 | 0.00 | 0.00 | 0.00 | 85 | |
| 20260507133915 | 71 | 142 | 6.0 | 7.0 | 0.00 | 0.00 | 0.00 | 85 | |
| 20260507133607 | 70 | 174 | 2.0 | 4.0 | 0.00 | 0.00 | 0.00 | 85 | |
| 20260507133313 | 70 | 179 | 3.0 | 7.0 | 0.00 | 0.00 | 0.00 | 87 | |
| 20260507133006 | 70 | 114 | 5.0 | 9.0 | 0.00 | 0.00 | 0.00 | 87 | |
| 20260507132710 | 70 | 200 | 4.0 | 10.0 | 0.00 | 0.00 | 0.00 | 86 | |
| 20260507132404 | 70 | 218 | 2.0 | 3.0 | 0.00 | 0.00 | 0.00 | 87 | |
| 20260507132109 | 70 | 216 | 7.0 | 11.0 | 0.00 | 0.00 | 0.00 | 86 | |
| 20260507131813 | 70 | 206 | 2.0 | 3.0 | 0.00 | 0.00 | 0.00 | 87 | |
| 20260507131507 | 69 | 193 | 11.0 | 14.0 | 0.00 | 0.00 | 0.00 | 87 | |
| 20260507131212 | 69 | 230 | 3.0 | 10.0 | 0.00 | 0.00 | 0.00 | 88 | |
| 20260507130905 | 69 | 158 | 8.0 | 9.0 | 0.00 | 0.00 | 0.00 | 88 | |
| 20260507130610 | 69 | 155 | 10.0 | 11.0 | 0.00 | 0.00 | 0.00 | 88 | |
| 20260507130302 | 69 | 134 | 5.0 | 7.0 | 0.00 | 0.00 | 0.00 | 88 | |
| 20260507130008 | 69 | 143 | 4.0 | 10.0 | 0.00 | 0.00 | 0.00 | 88 | |
| 20260507125409 | 69 | 159 | 4.0 | 11.0 | 0.00 | 0.00 | 0.00 | 89 | |
| 20260507125105 | 68 | 144 | 6.0 | 9.0 | 0.00 | 0.00 | 0.00 | 89 | |
| 20260507124808 | 69 | 169 | 6.0 | 11.0 | 0.00 | 0.00 | 0.00 | 89 | |
| 20260507124502 | 70 | 130 | 8.0 | 10.0 | 0.00 | 0.00 | 0.00 | 88 | |
| 20260507124207 | 69 | 152 | 6.0 | 7.0 | 0.00 | 0.00 | 0.00 | 89 | |
| 20260507123859 | 70 | 135 | 10.0 | 11.0 | 0.00 | 0.00 | 0.00 | 88 | |
| 20260507123602 | 70 | 143 | 8.0 | 11.0 | 0.00 | 0.00 | 0.00 | 88 | |
| 20260507123304 | 70 | 220 | 6.0 | 9.0 | 0.00 | 0.00 | 0.00 | 88 | |
| 20260507122958 | 69 | 138 | 4.0 | 14.0 | 0.00 | 0.00 | 0.00 | 88 | |
| 20260507122705 | 70 | 150 | 7.0 | 10.0 | 0.00 | 0.00 | 0.00 | 88 | |
| 20260507122407 | 70 | 116 | 6.0 | 8.0 | 0.00 | 0.00 | 0.00 | 88 | |
| 20260507122102 | 69 | 149 | 8.0 | 10.0 | 0.00 | 0.00 | 0.00 | 89 | |
| 20260507121807 | 69 | 134 | 4.0 | 9.0 | 0.00 | 0.00 | 0.00 | 90 | |
| 20260507121500 | 68 | 127 | 4.0 | 16.0 | 0.00 | 0.00 | 0.00 | 91 | |
| 20260507121204 | 69 | 192 | 9.0 | 14.0 | 0.00 | 0.00 | 0.00 | 90 | |
| 20260507120905 | 68 | 166 | 7.0 | 12.0 | 0.00 | 0.00 | 0.00 | 90 | |
| 20260507120600 | 68 | 210 | 7.0 | 15.0 | 0.00 | 0.00 | 0.00 | 91 | |
| 20260507120304 | 68 | 169 | 8.0 | 14.0 | 0.00 | 0.00 | 0.00 | 91 | |
| 20260507120005 | 68 | 152 | 10.0 | 12.0 | 0.00 | 0.00 | 0.00 | 91 | |
| 20260507115358 | 68 | 119 | 12.0 | 14.0 | 0.00 | 0.00 | 0.00 | 92 | |
| 20260507115102 | 68 | 173 | 8.0 | 14.0 | 0.00 | 0.00 | 0.00 | 93 | |
| 20260507114807 | 68 | 153 | 6.0 | 14.0 | 0.00 | 0.00 | 0.00 | 93 | |
| 20260507114501 | 67 | 191 | 6.0 | 15.0 | 0.00 | 0.00 | 0.00 | 93 | |
| 20260507114206 | 68 | 244 | 8.0 | 9.0 | 0.00 | 0.00 | 0.00 | 93 | |
| 20260507113858 | 68 | 188 | 7.0 | 15.0 | 0.00 | 0.00 | 0.00 | 93 | |
| 20260507113603 | 67 | 190 | 6.0 | 12.0 | 0.00 | 0.00 | 0.00 | 93 | |
| 20260507113308 | 67 | 199 | 10.0 | 14.0 | 0.00 | 0.00 | 0.00 | 93 | |
| 20260507113000 | 67 | 144 | 7.0 | 14.0 | 0.00 | 0.00 | 0.00 | 94 | |
| 20260507112706 | 67 | 188 | 6.0 | 14.0 | 0.00 | 0.00 | 0.00 | 94 | |
| 20260507112400 | 67 | 154 | 6.0 | 9.0 | 0.00 | 0.00 | 0.00 | 94 | |
| 20260507112104 | 67 | 217 | 8.0 | 11.0 | 0.00 | 0.00 | 0.00 | 94 | |
| 20260507111758 | 67 | 233 | 7.0 | 11.0 | 0.00 | 0.00 | 0.00 | 94 | |
| 20260507111504 | 67 | 172 | 6.0 | 11.0 | 0.00 | 0.00 | 0.00 | 94 | |
| 20260507111207 | 67 | 173 | 5.0 | 10.0 | 0.00 | 0.00 | 0.00 | 94 | |
| 20260507110900 | 67 | 161 | 5.0 | 8.0 | 0.00 | 0.00 | 0.00 | 94 | |
| 20260507110605 | 67 | 80 | 8.0 | 10.0 | 0.00 | 0.00 | 0.00 | 94 | |
| 20260507110308 | 67 | 173 | 2.0 | 9.0 | 0.00 | 0.00 | 0.00 | 94 | |
| 20260507110002 | 67 | 165 | 5.0 | 9.0 | 0.00 | 0.00 | 0.00 | 94 | |
| 20260507105402 | 67 | 102 | 2.0 | 9.0 | 0.00 | 0.00 | 0.00 | 94 | |
| 20260507105106 | 67 | 141 | 4.0 | 8.0 | 0.00 | 0.00 | 0.00 | 94 | |
| 20260507104800 | 67 | 177 | 5.0 | 10.0 | 0.00 | 0.00 | 0.00 | 94 | |
| 20260507104504 | 67 | 114 | 6.0 | 9.0 | 0.00 | 0.00 | 0.00 | 94 | |
| 20260507104206 | 67 | 160 | 7.0 | 9.0 | 0.00 | 0.00 | 0.00 | 94 | |
| 20260507103908 | 67 | 151 | 9.0 | 11.0 | 0.00 | 0.00 | 0.00 | 94 | |
| 20260507103607 | 67 | 114 | 5.0 | 14.0 | 0.00 | 0.00 | 0.00 | 94 | |
| 20260507103308 | 67 | 178 | 14.0 | 17.0 | 0.00 | 0.00 | 0.00 | 94 | |
| 20260507103000 | 67 | 156 | 8.0 | 14.0 | 0.00 | 0.00 | 0.00 | 94 | |
| 20260507102708 | 67 | 211 | 6.0 | 11.0 | 0.00 | 0.00 | 0.00 | 94 | |
| 20260507102408 | 67 | 158 | 10.0 | 17.0 | 0.00 | 0.00 | 0.00 | 94 | |
| 20260507102102 | 67 | 169 | 7.0 | 16.0 | 0.00 | 0.00 | 0.00 | 94 | |
| 20260507101806 | 67 | 165 | 8.0 | 11.0 | 0.00 | 0.00 | 0.00 | 94 | |
| 20260507101500 | 67 | 156 | 8.0 | 18.0 | 0.00 | 0.00 | 0.00 | 94 | |
| 20260507101205 | 67 | 120 | 8.0 | 18.0 | 0.00 | 0.00 | 0.00 | 94 | |
| 20260507100900 | 67 | 149 | 14.0 | 17.0 | 0.00 | 0.00 | 0.00 | 94 | |
| 20260507100602 | 67 | 152 | 12.0 | 17.0 | 0.00 | 0.00 | 0.00 | 94 | |
| 20260507100307 | 67 | 167 | 14.0 | 16.0 | 0.00 | 0.00 | 0.00 | 94 | |
| 20260507100010 | 67 | 155 | 11.0 | 16.0 | 0.00 | 0.00 | 0.00 | 94 | |
| 20260507095404 | 67 | 217 | 6.0 | 11.0 | 0.00 | 0.00 | 0.00 | 94 | |
| 20260507095109 | 67 | 170 | 7.0 | 11.0 | 0.00 | 0.00 | 0.00 | 94 | |
| 20260507094801 | 67 | 126 | 7.0 | 10.0 | 0.00 | 0.00 | 0.00 | 94 | |
| 20260507094506 | 67 | 159 | 8.0 | 15.0 | 0.00 | 0.00 | 0.00 | 94 | |
| 20260507094159 | 67 | 134 | 8.0 | 11.0 | 0.00 | 0.00 | 0.00 | 94 | |
| 20260507093905 | 67 | 155 | 9.0 | 14.0 | 0.00 | 0.00 | 0.00 | 94 | |
| 20260507093559 | 67 | 199 | 10.0 | 12.0 | 0.00 | 0.00 | 0.00 | 94 | |
| 20260507093302 | 67 | 133 | 9.0 | 16.0 | 0.00 | 0.00 | 0.00 | 94 | |
| 20260507093005 | 67 | 184 | 8.0 | 14.0 | 0.00 | 0.00 | 0.00 | 94 | |
| 20260507092704 | 67 | 160 | 9.0 | 10.0 | 0.00 | 0.00 | 0.00 | 94 | |
| 20260507092405 | 67 | 146 | 10.0 | 14.0 | 0.00 | 0.00 | 0.00 | 94 | |
| 20260507092109 | 67 | 141 | 4.0 | 10.0 | 0.00 | 0.00 | 0.00 | 94 | |
| 20260507091802 | 67 | 149 | 7.0 | 11.0 | 0.00 | 0.00 | 0.00 | 94 | |
| 20260507091505 | 67 | 148 | 10.0 | 11.0 | 0.00 | 0.00 | 0.00 | 94 | |
| 20260507091210 | 67 | 163 | 7.0 | 9.0 | 0.00 | 0.00 | 0.00 | 94 | |
| 20260507090904 | 67 | 117 | 7.0 | 10.0 | 0.00 | 0.00 | 0.00 | 94 | |
| 20260507090606 | 67 | 181 | 5.0 | 9.0 | 0.00 | 0.00 | 0.00 | 94 | |
| 20260507090259 | 67 | 137 | 5.0 | 9.0 | 0.00 | 0.00 | 0.00 | 94 | |
| 20260507090003 | 67 | 148 | 10.0 | 11.0 | 0.00 | 0.00 | 0.00 | 94 | |
| 20260507085403 | 67 | 121 | 5.0 | 7.0 | 0.00 | 0.00 | 0.00 | 94 | |
| 20260507085108 | 67 | 194 | 4.0 | 8.0 | 0.00 | 0.00 | 0.00 | 94 | |
| 20260507084809 | 67 | 197 | 5.0 | 9.0 | 0.00 | 0.00 | 0.00 | 94 | |
| 20260507084506 | 67 | 128 | 5.0 | 11.0 | 0.00 | 0.00 | 0.00 | 94 | |
| 20260507084208 | 67 | 161 | 3.0 | 8.0 | 0.00 | 0.00 | 0.00 | 94 | |
| 20260507083902 | 67 | 156 | 6.0 | 8.0 | 0.00 | 0.00 | 0.00 | 94 | |
| 20260507083608 | 67 | 214 | 4.0 | 6.0 | 0.00 | 0.00 | 0.00 | 94 | |
| 20260507083301 | 67 | 200 | 4.0 | 8.0 | 0.00 | 0.00 | 0.00 | 94 | |
| 20260507083003 | 67 | 116 | 4.0 | 8.0 | 0.00 | 0.00 | 0.00 | 94 | |
| 20260507082706 | 67 | 169 | 7.0 | 9.0 | 0.00 | 0.00 | 0.00 | 94 | |
| 20260507082400 | 67 | 147 | 5.0 | 8.0 | 0.00 | 0.00 | 0.00 | 94 | |
| 20260507082109 | 67 | 156 | 6.0 | 8.0 | 0.00 | 0.00 | 0.00 | 94 | |
| 20260507081810 | 67 | 175 | 6.0 | 9.0 | 0.00 | 0.00 | 0.00 | 94 | |
| 20260507081504 | 67 | 157 | 3.0 | 8.0 | 0.00 | 0.00 | 0.00 | 94 | |
| 20260507081201 | 67 | 151 | 6.0 | 10.0 | 0.00 | 0.00 | 0.00 | 94 | |
| 20260507080902 | 67 | 160 | 8.0 | 10.0 | 0.00 | 0.00 | 0.00 | 94 | |
| 20260507080606 | 67 | 164 | 6.0 | 10.0 | 0.00 | 0.00 | 0.00 | 94 | |
| 20260507080300 | 67 | 127 | 6.0 | 9.0 | 0.00 | 0.00 | 0.00 | 94 | |
| 20260507080004 | 67 | 169 | 8.0 | 9.0 | 0.00 | 0.00 | 0.00 | 94 | |
| 20260507075400 | 67 | 145 | 8.0 | 8.0 | 0.00 | 0.00 | 0.00 | 94 | |
| 20260507075105 | 67 | 156 | 6.0 | 10.0 | 0.00 | 0.00 | 0.00 | 94 | |
| 20260507074809 | 67 | 143 | 6.0 | 10.0 | 0.00 | 0.00 | 0.00 | 94 | |
| 20260507074502 | 67 | 119 | 6.0 | 8.0 | 0.00 | 0.00 | 0.00 | 94 | |
| 20260507074207 | 67 | 163 | 4.0 | 8.0 | 0.00 | 0.00 | 0.00 | 94 | |
| 20260507073901 | 67 | 146 | 5.0 | 8.0 | 0.00 | 0.00 | 0.00 | 94 | |
| 20260507073604 | 67 | 114 | 4.0 | 8.0 | 0.00 | 0.00 | 0.00 | 93 | |
| 20260507073308 | 67 | 219 | 4.0 | 8.0 | 0.00 | 0.00 | 0.00 | 93 | |
| 20260507073001 | 67 | 139 | 3.0 | 4.0 | 0.00 | 0.00 | 0.00 | 93 | |
| 20260507072706 | 67 | 120 | 2.0 | 8.0 | 0.00 | 0.00 | 0.00 | 93 | |
| 20260507072401 | 67 | 195 | 4.0 | 11.0 | 0.00 | 0.00 | 0.00 | 93 | |
| 20260507072107 | 67 | 231 | 9.0 | 11.0 | 0.00 | 0.00 | 0.00 | 93 | |
| 20260507071809 | 67 | 161 | 3.0 | 7.0 | 0.00 | 0.00 | 0.00 | 93 | |
| 20260507071508 | 67 | 182 | 8.0 | 10.0 | 0.00 | 0.00 | 0.00 | 93 | |
| 20260507071201 | 67 | 168 | 10.0 | 11.0 | 0.00 | 0.00 | 0.00 | 93 | |
| 20260507070910 | 67 | 207 | 7.0 | 12.0 | 0.00 | 0.00 | 0.00 | 93 | |
| 20260507070604 | 67 | 169 | 4.0 | 11.0 | 0.00 | 0.00 | 0.00 | 93 | |
| 20260507070306 | 67 | 154 | 6.0 | 10.0 | 0.00 | 0.00 | 0.00 | 93 | |
| 20260507070000 | 67 | 169 | 6.0 | 11.0 | 0.00 | 0.00 | 0.00 | 92 | |
| 20260507065405 | 67 | 162 | 9.0 | 10.0 | 0.00 | 0.00 | 0.00 | 92 | |
| 20260507065105 | 67 | 152 | 7.0 | 11.0 | 0.00 | 0.00 | 0.00 | 92 | |
| 20260507064809 | 67 | 165 | 7.0 | 12.0 | 0.00 | 0.00 | 0.00 | 92 | |
| 20260507064502 | 67 | 154 | 8.0 | 10.0 | 0.00 | 0.00 | 0.00 | 92 | |
| 20260507064211 | 67 | 170 | 7.0 | 12.0 | 0.00 | 0.00 | 0.00 | 92 | |
| 20260507063904 | 67 | 166 | 10.0 | 12.0 | 0.00 | 0.00 | 0.00 | 92 | |
| 20260507063609 | 67 | 157 | 8.0 | 11.0 | 0.00 | 0.00 | 0.00 | 92 | |
| 20260507063304 | 67 | 150 | 6.0 | 9.0 | 0.00 | 0.00 | 0.00 | 92 | |
| 20260507063009 | 67 | 153 | 6.0 | 15.0 | 0.00 | 0.00 | 0.00 | 92 | |
| 20260507062702 | 67 | 202 | 10.0 | 11.0 | 0.00 | 0.00 | 0.00 | 92 | |
| 20260507062406 | 67 | 162 | 6.0 | 10.0 | 0.00 | 0.00 | 0.00 | 93 | |
| 20260507062111 | 67 | 196 | 8.0 | 11.0 | 0.00 | 0.00 | 0.00 | 93 | |
| 20260507061800 | 67 | 191 | 10.0 | 12.0 | 0.00 | 0.00 | 0.00 | 93 | |
| 20260507061503 | 67 | 178 | 9.0 | 11.0 | 0.00 | 0.00 | 0.00 | 93 | |
| 20260507061206 | 67 | 151 | 8.0 | 12.0 | 0.00 | 0.00 | 0.00 | 93 | |
| 20260507060911 | 67 | 150 | 9.0 | 11.0 | 0.00 | 0.00 | 0.00 | 93 | |
| 20260507060605 | 67 | 129 | 5.0 | 12.0 | 0.00 | 0.00 | 0.00 | 93 | |
| 20260507060303 | 67 | 170 | 11.0 | 15.0 | 0.00 | 0.00 | 0.00 | 93 | |
| 20260507060003 | 67 | 145 | 9.0 | 10.0 | 0.00 | 0.00 | 0.00 | 93 | |
| 20260507055408 | 67 | 139 | 8.0 | 9.0 | 0.00 | 0.00 | 0.00 | 93 | |
| 20260507055102 | 67 | 175 | 8.0 | 11.0 | 0.00 | 0.00 | 0.00 | 92 | |
| 20260507054805 | 67 | 160 | 8.0 | 9.0 | 0.00 | 0.00 | 0.00 | 92 | |
| 20260507054510 | 67 | 162 | 9.0 | 10.0 | 0.00 | 0.00 | 0.00 | 92 | |
| 20260507054203 | 67 | 150 | 8.0 | 10.0 | 0.00 | 0.00 | 0.00 | 91 | |
| 20260507053908 | 67 | 161 | 8.0 | 10.0 | 0.00 | 0.00 | 0.00 | 91 | |
| 20260507053602 | 67 | 139 | 6.0 | 9.0 | 0.00 | 0.00 | 0.00 | 90 | |
| 20260507053307 | 67 | 131 | 7.0 | 9.0 | 0.00 | 0.00 | 0.00 | 90 | |
| 20260507053011 | 67 | 180 | 6.0 | 9.0 | 0.00 | 0.00 | 0.00 | 90 | |
| 20260507052704 | 67 | 144 | 6.0 | 8.0 | 0.00 | 0.00 | 0.00 | 89 | |
| 20260507052409 | 67 | 167 | 5.0 | 7.0 | 0.00 | 0.00 | 0.00 | 89 | |
| 20260507052109 | 67 | 200 | 7.0 | 9.0 | 0.00 | 0.00 | 0.00 | 89 | |
| 20260507051809 | 67 | 165 | 6.0 | 7.0 | 0.00 | 0.00 | 0.00 | 89 | |
| 20260507051510 | 67 | 186 | 6.0 | 8.0 | 0.00 | 0.00 | 0.00 | 88 | |
| 20260507051205 | 67 | 146 | 6.0 | 8.0 | 0.00 | 0.00 | 0.00 | 88 | |
| 20260507050909 | 67 | 192 | 6.0 | 7.0 | 0.00 | 0.00 | 0.00 | 88 | |
| 20260507050602 | 67 | 173 | 6.0 | 7.0 | 0.00 | 0.00 | 0.00 | 87 | |
| 20260507050308 | 68 | 223 | 5.0 | 7.0 | 0.00 | 0.00 | 0.00 | 86 | |
| 20260507050013 | 68 | 188 | 3.0 | 6.0 | 0.00 | 0.00 | 0.00 | 86 | |
| 20260507050001 | 68 | 166 | 4.0 | 6.0 | 0.00 | 0.00 | 0.00 | 85 | |
| 20260507045402 | 68 | 165 | 7.0 | 8.0 | 0.00 | 0.00 | 0.00 | 85 | |
| 20260507045107 | 68 | 181 | 7.0 | 8.0 | 0.00 | 0.00 | 0.00 | 85 | |
| 20260507044808 | 68 | 153 | 5.0 | 7.0 | 0.00 | 0.00 | 0.00 | 85 | |
| 20260507044502 | 68 | 164 | 5.0 | 7.0 | 0.00 | 0.00 | 0.00 | 85 | |
| 20260507044207 | 68 | 166 | 5.0 | 8.0 | 0.00 | 0.00 | 0.00 | 85 | |
| 20260507043912 | 68 | 170 | 5.0 | 7.0 | 0.00 | 0.00 | 0.00 | 84 | |
| 20260507043603 | 67 | 165 | 5.0 | 7.0 | 0.00 | 0.00 | 0.00 | 85 | |
| 20260507043308 | 67 | 189 | 3.0 | 4.0 | 0.00 | 0.00 | 0.00 | 85 | |
| 20260507043003 | 68 | 196 | 4.0 | 4.0 | 0.00 | 0.00 | 0.00 | 85 | |
| 20260507042713 | 67 | 152 | 3.0 | 4.0 | 0.00 | 0.00 | 0.00 | 86 | |
| 20260507042407 | 67 | 177 | 3.0 | 6.0 | 0.00 | 0.00 | 0.00 | 86 | |
| 20260507042110 | 67 | 209 | 3.0 | 6.0 | 0.00 | 0.00 | 0.00 | 87 | |
| 20260507041809 | 67 | 139 | 4.0 | 4.0 | 0.00 | 0.00 | 0.00 | 87 | |
| 20260507041512 | 67 | 170 | 5.0 | 6.0 | 0.00 | 0.00 | 0.00 | 87 | |
| 20260507041204 | 67 | 186 | 4.0 | 4.0 | 0.00 | 0.00 | 0.00 | 87 | |
| 20260507040909 | 67 | 160 | 5.0 | 6.0 | 0.00 | 0.00 | 0.00 | 88 | |
| 20260507040612 | 67 | 151 | 4.0 | 6.0 | 0.00 | 0.00 | 0.00 | 88 | |
| 20260507040306 | 67 | 155 | 4.0 | 4.0 | 0.00 | 0.00 | 0.00 | 88 | |
| 20260507040009 | 67 | 168 | 4.0 | 4.0 | 0.00 | 0.00 | 0.00 | 88 | |
| 20260507035407 | 67 | 168 | 5.0 | 7.0 | 0.00 | 0.00 | 0.00 | 89 | |
| 20260507035112 | 67 | 156 | 5.0 | 6.0 | 0.00 | 0.00 | 0.00 | 90 | |
| 20260507034807 | 67 | 169 | 4.0 | 6.0 | 0.00 | 0.00 | 0.00 | 90 | |
| 20260507034512 | 67 | 166 | 6.0 | 7.0 | 0.00 | 0.00 | 0.00 | 90 | |
| 20260507034206 | 67 | 171 | 5.0 | 7.0 | 0.00 | 0.00 | 0.00 | 91 | |
| 20260507033908 | 67 | 160 | 5.0 | 8.0 | 0.00 | 0.00 | 0.00 | 91 | |
| 20260507033611 | 67 | 144 | 6.0 | 8.0 | 0.00 | 0.00 | 0.00 | 91 | |
| 20260507033313 | 67 | 157 | 6.0 | 7.0 | 0.00 | 0.00 | 0.00 | 91 | |
| 20260507033006 | 67 | 176 | 4.0 | 6.0 | 0.00 | 0.00 | 0.00 | 91 | |
| 20260507032711 | 67 | 170 | 3.0 | 6.0 | 0.00 | 0.00 | 0.00 | 91 | |
| 20260507032405 | 67 | 136 | 3.0 | 6.0 | 0.00 | 0.00 | 0.00 | 91 | |
| 20260507032109 | 67 | 182 | 6.0 | 8.0 | 0.00 | 0.00 | 0.00 | 91 | |
| 20260507031813 | 67 | 123 | 5.0 | 7.0 | 0.00 | 0.00 | 0.00 | 91 | |
| 20260507031507 | 67 | 87 | 4.0 | 6.0 | 0.00 | 0.00 | 0.00 | 91 | |
| 20260507031212 | 67 | 169 | 5.0 | 7.0 | 0.00 | 0.00 | 0.00 | 91 | |
| 20260507030906 | 67 | 180 | 5.0 | 7.0 | 0.00 | 0.00 | 0.00 | 91 | |
| 20260507030609 | 67 | 154 | 6.0 | 7.0 | 0.00 | 0.00 | 0.00 | 92 | |
| 20260507030303 | 67 | 166 | 4.0 | 8.0 | 0.00 | 0.00 | 0.00 | 92 | |
| 20260507030007 | 66 | 192 | 6.0 | 8.0 | 0.00 | 0.00 | 0.00 | 93 | |
| 20260507025408 | 66 | 175 | 5.0 | 7.0 | 0.00 | 0.00 | 0.00 | 93 | |
| 20260507025111 | 66 | 178 | 5.0 | 6.0 | 0.00 | 0.00 | 0.00 | 93 | |
| 20260507024803 | 66 | 127 | 4.0 | 6.0 | 0.00 | 0.00 | 0.00 | 93 | |
| 20260507024508 | 66 | 150 | 6.0 | 8.0 | 0.00 | 0.00 | 0.00 | 93 | |
| 20260507024212 | 67 | 154 | 4.0 | 6.0 | 0.00 | 0.00 | 0.00 | 93 | |
| 20260507023906 | 67 | 169 | 4.0 | 6.0 | 0.00 | 0.00 | 0.00 | 93 | |
| 20260507023612 | 67 | 147 | 3.0 | 6.0 | 0.00 | 0.00 | 0.00 | 93 | |
| 20260507023306 | 67 | 154 | 3.0 | 3.0 | 0.00 | 0.00 | 0.00 | 93 | |
| 20260507023010 | 67 | 152 | 4.0 | 6.0 | 0.00 | 0.00 | 0.00 | 93 | |
| 20260507022705 | 67 | 139 | 4.0 | 6.0 | 0.00 | 0.00 | 0.00 | 93 | |
| 20260507022410 | 67 | 138 | 3.0 | 4.0 | 0.00 | 0.00 | 0.00 | 92 | |
| 20260507022113 | 67 | 169 | 4.0 | 7.0 | 0.00 | 0.00 | 0.00 | 92 | |
| 20260507021807 | 67 | 114 | 4.0 | 6.0 | 0.00 | 0.00 | 0.00 | 92 | |
| 20260507021512 | 67 | 165 | 3.0 | 6.0 | 0.00 | 0.00 | 0.00 | 92 | |
| 20260507021207 | 67 | 184 | 5.0 | 7.0 | 0.00 | 0.00 | 0.00 | 91 | |
| 20260507020912 | 67 | 157 | 5.0 | 6.0 | 0.00 | 0.00 | 0.00 | 91 | |
| 20260507020604 | 67 | 196 | 4.0 | 4.0 | 0.00 | 0.00 | 0.00 | 90 | |
| 20260507020309 | 68 | 159 | 4.0 | 7.0 | 0.00 | 0.00 | 0.00 | 90 | |
| 20260507020014 | 68 | 235 | 5.0 | 7.0 | 0.00 | 0.00 | 0.00 | 90 | |
| 20260507020002 | 68 | 207 | 7.0 | 9.0 | 0.00 | 0.00 | 0.00 | 89 | |
| 20260507015412 | 67 | 187 | 8.0 | 9.0 | 0.00 | 0.00 | 0.00 | 89 | |
| 20260507015104 | 67 | 169 | 7.0 | 9.0 | 0.00 | 0.00 | 0.00 | 88 | |
| 20260507014808 | 67 | 201 | 5.0 | 10.0 | 0.00 | 0.00 | 0.00 | 88 | |
| 20260507014513 | 67 | 165 | 5.0 | 9.0 | 0.00 | 0.00 | 0.00 | 88 | |
| 20260507014208 | 67 | 206 | 8.0 | 9.0 | 0.00 | 0.00 | 0.00 | 88 | |
| 20260507013911 | 67 | 201 | 6.0 | 8.0 | 0.00 | 0.00 | 0.00 | 88 | |
| 20260507013612 | 67 | 168 | 6.0 | 10.0 | 0.00 | 0.00 | 0.00 | 88 | |
| 20260507013306 | 67 | 175 | 6.0 | 8.0 | 0.00 | 0.00 | 0.00 | 89 | |
| 20260507013010 | 67 | 144 | 6.0 | 7.0 | 0.00 | 0.00 | 0.00 | 89 | |
| 20260507012713 | 67 | 196 | 8.0 | 10.0 | 0.00 | 0.00 | 0.00 | 90 | |
| 20260507012406 | 67 | 163 | 6.0 | 9.0 | 0.00 | 0.00 | 0.00 | 90 | |
| 20260507012112 | 67 | 167 | 6.0 | 10.0 | 0.00 | 0.00 | 0.00 | 90 | |
| 20260507011806 | 68 | 174 | 6.0 | 11.0 | 0.00 | 0.00 | 0.00 | 90 | |
| 20260507011510 | 67 | 205 | 6.0 | 12.0 | 0.00 | 0.00 | 0.00 | 90 | |
| 20260507011213 | 67 | 173 | 6.0 | 9.0 | 0.00 | 0.00 | 0.00 | 90 | |
| 20260507010905 | 67 | 196 | 7.0 | 9.0 | 0.00 | 0.00 | 0.00 | 91 | |
| 20260507010610 | 67 | 182 | 4.0 | 7.0 | 0.00 | 0.00 | 0.00 | 91 | |
| 20260507010303 | 67 | 222 | 7.0 | 8.0 | 0.00 | 0.00 | 0.00 | 92 | |
| 20260507010004 | 67 | 186 | 5.0 | 9.0 | 0.00 | 0.00 | 0.00 | 92 | |
| 20260507005413 | 67 | 158 | 4.0 | 4.0 | 0.00 | 0.00 | 0.00 | 92 | |
| 20260507005106 | 67 | 206 | 7.0 | 8.0 | 0.00 | 0.00 | 0.00 | 92 | |
| 20260507004810 | 67 | 182 | 3.0 | 8.0 | 0.00 | 0.00 | 0.00 | 92 | |
| 20260507004503 | 67 | 190 | 6.0 | 9.0 | 0.00 | 0.00 | 0.00 | 92 | |
| 20260507004208 | 67 | 232 | 8.0 | 9.0 | 0.00 | 0.00 | 0.00 | 93 | |
| 20260507003913 | 67 | 154 | 7.0 | 10.0 | 0.00 | 0.00 | 0.00 | 93 | |
| 20260507003605 | 68 | 192 | 7.0 | 9.0 | 0.00 | 0.00 | 0.00 | 93 | |
| 20260507003311 | 68 | 160 | 5.0 | 8.0 | 0.00 | 0.00 | 0.00 | 93 | |
| 20260507003004 | 68 | 158 | 7.0 | 9.0 | 0.00 | 0.00 | 0.00 | 93 | |
| 20260507002709 | 68 | 151 | 6.0 | 9.0 | 0.00 | 0.00 | 0.00 | 93 | |
| 20260507002413 | 68 | 192 | 6.0 | 10.0 | 0.00 | 0.00 | 0.00 | 93 | |
| 20260507002106 | 68 | 202 | 6.0 | 11.0 | 0.00 | 0.00 | 0.00 | 93 | |
| 20260507001810 | 68 | 188 | 6.0 | 9.0 | 0.00 | 0.00 | 0.00 | 93 | |
| 20260507001513 | 68 | 159 | 7.0 | 9.0 | 0.00 | 0.00 | 0.00 | 93 | |
| 20260507001206 | 68 | 181 | 7.0 | 8.0 | 0.00 | 0.00 | 0.00 | 93 | |
| 20260507000912 | 68 | 200 | 6.0 | 11.0 | 0.00 | 0.00 | 0.00 | 93 | |
| 20260507000605 | 68 | 191 | 10.0 | 11.0 | 0.00 | 0.00 | 0.00 | 93 | |
| 20260507000306 | 68 | 148 | 7.0 | 8.0 | 0.00 | 0.00 | 0.00 | 92 | |
| 20260507000010 | 68 | 161 | 6.0 | 9.0 | 0.00 | 0.00 | 0.00 | 92 | |
| 20260506235412 | 68 | 154 | 8.0 | 10.0 | 0.00 | 0.00 | 0.00 | 92 | |
| 20260506235106 | 68 | 205 | 7.0 | 10.0 | 0.00 | 0.00 | 0.00 | 92 | |
| 20260506234812 | 68 | 200 | 9.0 | 11.0 | 0.00 | 0.00 | 0.00 | 92 | |
| 20260506234505 | 68 | 168 | 9.0 | 11.0 | 0.00 | 0.00 | 0.00 | 92 | |
| 20260506234210 | 68 | 196 | 7.0 | 14.0 | 0.00 | 0.00 | 0.00 | 92 | |
| 20260506233903 | 68 | 204 | 7.0 | 11.0 | 0.00 | 0.00 | 0.00 | 91 | |
| 20260506233606 | 68 | 201 | 9.0 | 12.0 | 0.00 | 0.00 | 0.00 | 91 | |
| 20260506233312 | 68 | 169 | 6.0 | 10.0 | 0.00 | 0.00 | 0.00 | 91 | |
| 20260506233007 | 68 | 201 | 6.0 | 11.0 | 0.00 | 0.00 | 0.00 | 91 | |
| 20260506232712 | 68 | 217 | 11.0 | 15.0 | 0.00 | 0.00 | 0.00 | 91 | |
| 20260506232406 | 68 | 188 | 11.0 | 15.0 | 0.00 | 0.00 | 0.00 | 91 | |
| 20260506232110 | 68 | 166 | 10.0 | 12.0 | 0.00 | 0.00 | 0.00 | 91 | |
| 20260506231804 | 68 | 172 | 9.0 | 12.0 | 0.00 | 0.00 | 0.00 | 90 | |
| 20260506231509 | 68 | 203 | 11.0 | 12.0 | 0.00 | 0.00 | 0.00 | 90 | |
| 20260506231213 | 68 | 196 | 9.0 | 14.0 | 0.00 | 0.00 | 0.00 | 91 | |
| 20260506230906 | 68 | 172 | 12.0 | 15.0 | 0.00 | 0.00 | 0.00 | 91 | |
| 20260506230610 | 68 | 174 | 12.0 | 16.0 | 0.00 | 0.00 | 0.00 | 91 | |
| 20260506230311 | 68 | 195 | 10.0 | 12.0 | 0.00 | 0.00 | 0.00 | 91 | |
| 20260506230004 | 68 | 176 | 10.0 | 14.0 | 0.00 | 0.00 | 0.00 | 90 | |
| 20260506225411 | 68 | 165 | 9.0 | 12.0 | 0.00 | 0.00 | 0.00 | 91 | |
| 20260506225104 | 68 | 209 | 9.0 | 14.0 | 0.00 | 0.00 | 0.00 | 91 | |
| 20260506224810 | 68 | 166 | 10.0 | 12.0 | 0.00 | 0.00 | 0.00 | 91 | |
| 20260506224503 | 69 | 168 | 9.0 | 12.0 | 0.00 | 0.00 | 0.00 | 91 | |
| 20260506224207 | 69 | 186 | 9.0 | 12.0 | 0.00 | 0.00 | 0.00 | 90 | |
| 20260506223912 | 69 | 167 | 10.0 | 12.0 | 0.00 | 0.00 | 0.00 | 90 | |
| 20260506223606 | 69 | 186 | 9.0 | 11.0 | 0.00 | 0.00 | 0.00 | 90 | |
| 20260506223312 | 69 | 188 | 10.0 | 11.0 | 0.00 | 0.00 | 0.00 | 89 | |
| 20260506223006 | 69 | 171 | 7.0 | 10.0 | 0.00 | 0.00 | 0.00 | 90 | |
| 20260506222709 | 69 | 194 | 8.0 | 9.0 | 0.00 | 0.00 | 0.00 | 89 | |
| 20260506222404 | 69 | 182 | 6.0 | 9.0 | 0.00 | 0.00 | 0.00 | 89 | |
| 20260506222109 | 69 | 159 | 7.0 | 10.0 | 0.00 | 0.00 | 0.00 | 89 | |
| 20260506221813 | 70 | 168 | 7.0 | 9.0 | 0.00 | 0.00 | 0.00 | 89 | |
| 20260506221507 | 70 | 198 | 7.0 | 11.0 | 0.00 | 0.00 | 0.00 | 89 | |
| 20260506221212 | 70 | 145 | 6.0 | 8.0 | 0.00 | 0.00 | 0.00 | 89 | |
| 20260506220905 | 70 | 192 | 9.0 | 14.0 | 0.00 | 0.00 | 0.00 | 89 | |
| 20260506220610 | 70 | 197 | 7.0 | 11.0 | 0.00 | 0.00 | 0.00 | 88 | |
| 20260506220304 | 70 | 227 | 8.0 | 12.0 | 0.00 | 0.00 | 0.00 | 88 | |
| 20260506220009 | 70 | 184 | 8.0 | 9.0 | 0.00 | 0.00 | 0.00 | 88 | |
| 20260506215409 | 70 | 216 | 6.0 | 7.0 | 0.00 | 0.00 | 0.00 | 88 | |
| 20260506215112 | 70 | 197 | 8.0 | 9.0 | 0.00 | 0.00 | 0.00 | 89 | |
| 20260506214806 | 70 | 164 | 5.0 | 9.0 | 0.00 | 0.00 | 0.00 | 89 | |
| 20260506214511 | 70 | 204 | 6.0 | 9.0 | 0.00 | 0.00 | 0.00 | 89 | |
| 20260506214203 | 70 | 209 | 7.0 | 9.0 | 0.00 | 0.00 | 0.00 | 89 | |
| 20260506213907 | 70 | 210 | 8.0 | 8.0 | 0.00 | 0.00 | 0.00 | 89 | |
| 20260506213612 | 70 | 193 | 6.0 | 8.0 | 0.00 | 0.00 | 0.00 | 90 | |
| 20260506213304 | 70 | 192 | 7.0 | 10.0 | 0.00 | 0.00 | 0.00 | 89 | |
| 20260506213008 | 70 | 185 | 4.0 | 8.0 | 0.00 | 0.00 | 0.00 | 89 | |
| 20260506212709 | 70 | 187 | 7.0 | 8.0 | 0.00 | 0.00 | 0.00 | 89 | |
| 20260506212414 | 70 | 157 | 7.0 | 9.0 | 0.00 | 0.00 | 0.00 | 89 | |
| 20260506212106 | 70 | 207 | 6.0 | 9.0 | 0.00 | 0.00 | 0.00 | 89 | |
| 20260506211809 | 70 | 208 | 6.0 | 8.0 | 0.00 | 0.00 | 0.00 | 89 | |
| 20260506211513 | 70 | 212 | 6.0 | 9.0 | 0.00 | 0.00 | 0.00 | 89 | |
| 20260506211206 | 70 | 201 | 7.0 | 8.0 | 0.00 | 0.00 | 0.00 | 89 | |
| 20260506210912 | 70 | 209 | 6.0 | 8.0 | 0.00 | 0.00 | 0.00 | 88 | |
| 20260506210606 | 70 | 210 | 6.0 | 10.0 | 0.00 | 0.00 | 0.00 | 88 | |
| 20260506210310 | 70 | 176 | 5.0 | 9.0 | 0.00 | 0.00 | 0.00 | 88 | |
| 20260506210004 | 70 | 204 | 8.0 | 9.0 | 0.00 | 0.00 | 0.00 | 88 | |
| 20260506205403 | 71 | 197 | 6.0 | 9.0 | 0.00 | 0.00 | 0.00 | 86 | |
| 20260506205108 | 71 | 153 | 6.0 | 8.0 | 0.00 | 0.00 | 0.00 | 87 | |
| 20260506204812 | 70 | 200 | 4.0 | 8.0 | 0.00 | 0.00 | 0.00 | 86 | |
| 20260506204505 | 71 | 187 | 10.0 | 10.0 | 0.00 | 0.00 | 0.00 | 86 | |
| 20260506204209 | 71 | 205 | 6.0 | 8.0 | 0.00 | 0.00 | 0.00 | 86 | |
| 20260506203914 | 71 | 165 | 4.0 | 11.0 | 0.00 | 0.00 | 0.00 | 85 | |
| 20260506203608 | 71 | 152 | 8.0 | 14.0 | 0.00 | 0.00 | 0.00 | 84 | |
| 20260506203312 | 71 | 188 | 6.0 | 10.0 | 0.00 | 0.00 | 0.00 | 84 | |
| 20260506203007 | 72 | 204 | 8.0 | 10.0 | 0.00 | 0.00 | 0.00 | 83 | |
| 20260506202711 | 72 | 214 | 7.0 | 10.0 | 0.00 | 0.00 | 0.00 | 83 | |
| 20260506202404 | 71 | 195 | 6.0 | 8.0 | 0.00 | 0.00 | 0.00 | 83 | |
| 20260506202110 | 71 | 192 | 7.0 | 10.0 | 0.00 | 0.00 | 0.00 | 83 | |
| 20260506201804 | 71 | 203 | 9.0 | 11.0 | 0.00 | 0.00 | 0.00 | 83 | |
| 20260506201508 | 72 | 219 | 7.0 | 12.0 | 0.00 | 0.00 | 0.00 | 82 | |
| 20260506201213 | 72 | 169 | 5.0 | 8.0 | 0.00 | 0.00 | 0.00 | 84 | |
| 20260506200908 | 72 | 195 | 6.0 | 10.0 | 0.00 | 0.00 | 0.00 | 84 | |
| 20260506200613 | 72 | 201 | 4.0 | 8.0 | 0.00 | 0.00 | 0.00 | 83 | |
| 20260506200308 | 71 | 239 | 5.0 | 9.0 | 0.00 | 0.00 | 0.00 | 83 | |
| 20260506200012 | 72 | 175 | 4.0 | 9.0 | 0.00 | 0.00 | 0.00 | 83 | |
| 20260506200000 | 73 | 201 | 9.0 | 10.0 | 0.00 | 0.00 | 0.00 | 82 | |
| 20260506195411 | 72 | 214 | 3.0 | 6.0 | 0.00 | 0.00 | 0.00 | 83 | |
| 20260506195113 | 72 | 188 | 6.0 | 10.0 | 0.00 | 0.00 | 0.00 | 82 | |
| 20260506194805 | 73 | 218 | 7.0 | 14.0 | 0.00 | 0.00 | 0.00 | 80 | |
| 20260506194510 | 72 | 193 | 4.0 | 6.0 | 0.00 | 0.00 | 0.00 | 80 | |
| 20260506194213 | 72 | 113 | 3.0 | 6.0 | 0.00 | 0.00 | 0.00 | 79 | |
| 20260506193907 | 71 | 156 | 6.0 | 10.0 | 0.00 | 0.00 | 0.00 | 79 | |
| 20260506193612 | 72 | 144 | 7.0 | 12.0 | 0.00 | 0.00 | 0.00 | 79 | |
| 20260506193307 | 73 | 177 | 10.0 | 14.0 | 0.00 | 0.00 | 0.00 | 79 | |
| 20260506192706 | 72 | 254 | 7.0 | 10.0 | 0.00 | 0.00 | 0.00 | 78 | |
| 20260506192410 | 72 | 200 | 4.0 | 9.0 | 0.00 | 0.00 | 0.00 | 79 | |
| 20260506192114 | 74 | 133 | 4.0 | 9.0 | 0.00 | 0.00 | 0.00 | 79 | |
| 20260506191807 | 73 | 179 | 4.0 | 8.0 | 0.00 | 0.00 | 0.00 | 80 | |
| 20260506191511 | 72 | 111 | 3.0 | 6.0 | 0.00 | 0.00 | 0.00 | 81 | |
| 20260506191206 | 71 | 213 | 2.0 | 12.0 | 0.00 | 0.00 | 0.00 | 82 | |
| 20260506190910 | 72 | 123 | 6.0 | 8.0 | 0.00 | 0.00 | 0.00 | 82 | |
| 20260506190614 | 73 | 220 | 10.0 | 11.0 | 0.00 | 0.00 | 0.00 | 82 | |
| 20260506190308 | 72 | 182 | 5.0 | 10.0 | 0.00 | 0.00 | 0.00 | 81 | |
| 20260506190013 | 72 | 195 | 4.0 | 9.0 | 0.00 | 0.00 | 0.00 | 81 | |
| 20260506190002 | 73 | 236 | 7.0 | 11.0 | 0.00 | 0.00 | 0.00 | 81 | |
| 20260506185414 | 73 | 198 | 6.0 | 9.0 | 0.00 | 0.00 | 0.00 | 80 | |
| 20260506185108 | 72 | 186 | 4.0 | 10.0 | 0.00 | 0.00 | 0.00 | 81 | |
| 20260506184813 | 72 | 197 | 5.0 | 8.0 | 0.00 | 0.00 | 0.00 | 80 | |
| 20260506184513 | 73 | 242 | 9.0 | 14.0 | 0.00 | 0.00 | 0.00 | 80 | |
| 20260506184206 | 73 | 202 | 11.0 | 12.0 | 0.00 | 0.00 | 0.00 | 79 | |
| 20260506183911 | 72 | 167 | 7.0 | 9.0 | 0.00 | 0.00 | 0.00 | 79 | |
| 20260506183605 | 72 | 171 | 7.0 | 11.0 | 0.00 | 0.00 | 0.00 | 80 | |
| 20260506183308 | 71 | 190 | 8.0 | 14.0 | 0.00 | 0.00 | 0.00 | 82 | |
| 20260506183009 | 73 | 208 | 11.0 | 14.0 | 0.00 | 0.00 | 0.00 | 81 | |
| 20260506182715 | 72 | 197 | 7.0 | 9.0 | 0.00 | 0.00 | 0.00 | 81 | |
| 20260506182409 | 72 | 208 | 6.0 | 12.0 | 0.00 | 0.00 | 0.00 | 82 | |
| 20260506182114 | 72 | 217 | 11.0 | 15.0 | 0.00 | 0.00 | 0.00 | 83 | |
| 20260506181808 | 71 | 217 | 5.0 | 11.0 | 0.00 | 0.00 | 0.00 | 84 | |
| 20260506181512 | 71 | 180 | 10.0 | 15.0 | 0.00 | 0.00 | 0.00 | 84 | |
| 20260506181214 | 72 | 201 | 8.0 | 16.0 | 0.00 | 0.00 | 0.00 | 83 | |
| 20260506180907 | 71 | 206 | 10.0 | 14.0 | 0.00 | 0.00 | 0.00 | 83 | |
| 20260506180611 | 72 | 211 | 9.0 | 12.0 | 0.00 | 0.00 | 0.00 | 83 | |
| 20260506180313 | 72 | 188 | 7.0 | 12.0 | 0.00 | 0.00 | 0.00 | 84 | |
| 20260506180012 | 71 | 173 | 10.0 | 15.0 | 0.00 | 0.00 | 0.00 | 83 | |
| 20260506180001 | 72 | 179 | 10.0 | 16.0 | 0.00 | 0.00 | 0.00 | 82 | |
| 20260506175412 | 73 | 188 | 11.0 | 18.0 | 0.00 | 0.00 | 0.00 | 81 | |
| 20260506175106 | 72 | 206 | 7.0 | 12.0 | 0.00 | 0.00 | 0.00 | 82 | |
| 20260506174811 | 72 | 243 | 8.0 | 12.0 | 0.00 | 0.00 | 0.00 | 82 | |
| 20260506174505 | 71 | 197 | 9.0 | 12.0 | 0.00 | 0.00 | 0.00 | 83 | |
| 20260506174210 | 72 | 203 | 10.0 | 15.0 | 0.00 | 0.00 | 0.00 | 83 | |
| 20260506173916 | 72 | 157 | 10.0 | 16.0 | 0.00 | 0.00 | 0.00 | 83 | |
| 20260506173609 | 71 | 169 | 6.0 | 14.0 | 0.00 | 0.00 | 0.00 | 83 | |
| 20260506173311 | 72 | 164 | 8.0 | 10.0 | 0.00 | 0.00 | 0.00 | 83 | |
| 20260506173005 | 72 | 193 | 11.0 | 17.0 | 0.00 | 0.00 | 0.00 | 82 | |
| 20260506172711 | 72 | 197 | 11.0 | 14.0 | 0.00 | 0.00 | 0.00 | 82 | |
| 20260506172415 | 72 | 173 | 9.0 | 14.0 | 0.00 | 0.00 | 0.00 | 82 | |
| 20260506172108 | 72 | 211 | 12.0 | 16.0 | 0.00 | 0.00 | 0.00 | 81 | |
| 20260506171808 | 72 | 192 | 13.0 | 15.0 | 0.00 | 0.00 | 0.00 | 82 | |
| 20260506171509 | 72 | 159 | 8.0 | 12.0 | 0.00 | 0.00 | 0.00 | 82 | |
| 20260506171213 | 71 | 225 | 7.0 | 11.0 | 0.00 | 0.00 | 0.00 | 83 | |
| 20260506170906 | 72 | 200 | 11.0 | 15.0 | 0.00 | 0.00 | 0.00 | 82 | |
| 20260506170611 | 72 | 177 | 11.0 | 15.0 | 0.00 | 0.00 | 0.00 | 82 | |
| 20260506170315 | 72 | 209 | 12.0 | 15.0 | 0.00 | 0.00 | 0.00 | 83 | |
| 20260506170008 | 72 | 223 | 15.0 | 17.0 | 0.00 | 0.00 | 0.00 | 82 | |
| 20260506165405 | 71 | 187 | 14.0 | 17.0 | 0.00 | 0.00 | 0.00 | 84 | |
| 20260506165110 | 72 | 200 | 12.0 | 15.0 | 0.00 | 0.00 | 0.00 | 84 | |
| 20260506164814 | 72 | 213 | 11.0 | 16.0 | 0.00 | 0.00 | 0.00 | 85 | |
| 20260506164515 | 72 | 209 | 15.0 | 17.0 | 0.00 | 0.00 | 0.00 | 85 |